Santa Maria, CA

6:26 PM PST on February 18, 2018 (GMT -0800)
Santa Maria Public Airport / Captain G. Allan Hancock Field

Weather History for KSMX - September, 2012

Change the Weather History Date:

Sunday, September 2, 2012

  Actual Average Record
Temperature  
Mean Temperature 61 °F 64 °F  
Max Temperature 69 °F 74 °F 106 °F (2017)
Min Temperature 52 °F 54 °F 43 °F (1925)
Degree Days  
Heating Degree Days 4 2  
Month to date heating degree days 9 4  
Since 1 July heating degree days 113 140  
Cooling Degree Days 0 1  
Month to date cooling degree days 0 2  
Year to date cooling degree days 24 57  
Growing Degree Days 11 (Base 50)    
Moisture  
Dew Point 53 °F    
Average Humidity 80    
Maximum Humidity 100    
Minimum Humidity 59    
Precipitation  
Precipitation 0.00 in 0.00 in 0.70 in (1997)
Month to date precipitation 0.00 0.00  
Year to date precipitation 7.23 9.76  
Since 1 July precipitation 0.03  
Sea Level Pressure  
Sea Level Pressure 29.97 in    
Wind  
Wind Speed 4 mph (WNW)    
Max Wind Speed 12 mph    
Max Gust Speed 18 mph    
Visibility 4 miles    
Events      
T = Trace of Precipitation, MM = Missing Value Source: NWS Daily Summary

Daily Weather History Graph

Daily Weather History Graph

Search for Another Location

Airport or City:

Trip Planner

Search our weather history database for the weather conditions in past years. The results will help you decide how hot, cold, wet, or windy it might be!

Date:

Astronomy

Sep. 02, 2012 Rise Set
Actual Time 6:35 AM PDT 7:26 PM PDT
Civil Twilight 6:10 AM PDT 7:51 PM PDT
Nautical Twilight 5:39 AM PDT 8:22 PM PDT
Astronomical Twilight 5:08 AM PDT 8:53 PM PDT
Moon 8:25 PM PDT (9/2) 8:41 AM PDT (9/2)
Length of Visible Light 13h 41m
Length of Day
12h 50m
Waning Gibbous, 95% of the Moon is Illuminated
Sep 2
Waning Gibbous
Sep 8
Last Quarter
Sep 15
New
Sep 22
First Quarter
Sep 29
Full

Hourly Weather History & Observations

Time (PDT) Temp. Dew Point Humidity Pressure Visibility Wind Dir Wind Speed Gust Speed Precip Events Conditions
12:02 AM 53.6 °F 51.8 °F 94% 29.99 in 5.0 mi West 6.9 mph - N/A   Mostly Cloudy
12:17 AM 53.6 °F 51.8 °F 94% 29.99 in 5.0 mi West 5.8 mph - N/A   Overcast
12:51 AM 55.0 °F 53.1 °F 93% 29.99 in 4.0 mi WNW 6.9 mph - N/A   Overcast
1:51 AM 53.1 °F 52.0 °F 96% 29.98 in 4.0 mi Calm Calm - N/A   Overcast
2:51 AM 52.0 °F 50.0 °F 93% 29.97 in 6.0 mi Calm Calm - N/A   Overcast
3:51 AM 54.0 °F 52.0 °F 93% 29.96 in 5.0 mi Calm Calm - N/A   Overcast
4:51 AM 54.0 °F 52.0 °F 93% 29.96 in 3.0 mi Calm Calm - N/A   Overcast
5:13 AM 53.6 °F 51.8 °F 94% 29.95 in 2.0 mi Calm Calm - N/A   Overcast
5:35 AM 53.6 °F 51.8 °F 94% 29.96 in 1.8 mi Calm Calm - N/A   Overcast
5:51 AM 53.1 °F 52.0 °F 96% 29.96 in 1.5 mi West 3.5 mph - N/A   Overcast
6:51 AM 53.1 °F 53.1 °F 100% 29.97 in 1.2 mi Calm Calm - N/A   Overcast
7:33 AM 53.6 °F 51.8 °F 94% 29.97 in 1.5 mi Calm Calm - N/A   Overcast
7:51 AM 53.1 °F 53.1 °F 100% 29.98 in 1.5 mi Calm Calm - N/A   Overcast
8:51 AM 54.0 °F 53.1 °F 97% 29.99 in 2.5 mi Calm Calm - N/A   Overcast
9:51 AM 55.9 °F 52.0 °F 87% 29.99 in 5.0 mi SSW 3.5 mph - N/A   Overcast
10:31 AM 60.8 °F 53.6 °F 77% 29.99 in 6.0 mi NNW 3.5 mph - N/A   Haze
10:51 AM 62.1 °F 53.1 °F 72% 29.99 in 7.0 mi Variable 3.5 mph - N/A   Scattered Clouds
11:51 AM 66.0 °F 54.0 °F 65% 29.99 in 7.0 mi Variable 5.8 mph - N/A   Clear
12:51 PM 66.9 °F 54.0 °F 63% 29.98 in 8.0 mi West 9.2 mph - N/A   Clear
1:51 PM 68.0 °F 54.0 °F 61% 29.97 in 9.0 mi WNW 10.4 mph - N/A   Clear
2:51 PM 66.9 °F 54.0 °F 63% 29.96 in 9.0 mi WNW 11.5 mph - N/A   Clear
3:51 PM 66.9 °F 54.0 °F 63% 29.94 in 9.0 mi WNW 8.1 mph - N/A   Clear
4:51 PM 66.0 °F 54.0 °F 65% 29.95 in 8.0 mi WNW 8.1 mph - N/A   Clear
5:51 PM 63.0 °F 54.0 °F 72% 29.94 in 7.0 mi WNW 8.1 mph - N/A   Clear
6:51 PM 57.9 °F 53.1 °F 84% 29.94 in 6.0 mi WNW 8.1 mph - N/A   Haze
7:24 PM 55.4 °F 53.6 °F 94% 29.94 in 5.0 mi NW 5.8 mph - N/A   Mostly Cloudy
7:32 PM 55.4 °F 53.6 °F 94% 29.94 in 4.0 mi NW 5.8 mph - N/A   Overcast
7:51 PM 55.9 °F 54.0 °F 93% 29.95 in 5.0 mi WNW 6.9 mph - N/A   Overcast
8:35 PM 55.4 °F 53.6 °F 94% 29.95 in 2.5 mi WNW 3.5 mph - N/A   Overcast
8:51 PM 55.0 °F 53.1 °F 93% 29.96 in 3.0 mi Calm Calm - N/A   Overcast
9:47 PM 55.4 °F 53.6 °F 94% 29.96 in 2.5 mi Calm Calm - N/A   Overcast
9:51 PM 55.0 °F 54.0 °F 96% 29.96 in 2.5 mi Calm Calm - N/A   Overcast
10:23 PM 55.4 °F 53.6 °F 94% 29.96 in 3.0 mi Calm Calm - N/A   Overcast
10:30 PM 55.4 °F 53.6 °F 94% 29.96 in 2.0 mi Calm Calm - N/A   Overcast
10:47 PM 55.4 °F 53.6 °F 94% 29.96 in 3.0 mi Calm Calm - N/A   Overcast
10:51 PM 55.0 °F 54.0 °F 96% 29.96 in 3.0 mi Calm Calm - N/A   Overcast
11:00 PM 55.4 °F 53.6 °F 94% 29.96 in 2.5 mi Calm Calm - N/A   Overcast
11:51 PM 55.0 °F 54.0 °F 96% 29.96 in 2.0 mi Calm Calm - N/A   Overcast